Weather History for Newark, NJ

Change the Weather History Date:

Monday, May 7, 2012

  Actual Average Record
Temperature  
Mean Temperature 58 °F 60 °F  
Max Temperature 64 °F 69 °F 94 °F (2000)
Min Temperature 51 °F 51 °F 38 °F (1970)
Degree Days  
Heating Degree Days 7 6  
Month to date heating degree days 40 48  
Since 1 July heating degree days 3678 4768  
Cooling Degree Days 0 1  
Month to date cooling degree days 0 7  
Year to date cooling degree days 28 19  
Growing Degree Days 7 (Base 50)    
Moisture  
Dew Point 46 °F    
Average Humidity 68    
Maximum Humidity 83    
Minimum Humidity 52    
Precipitation  
Precipitation T in 0.12 in 1.07 in (1942)
Month to date precipitation 1.09 0.86  
Year to date precipitation 9.81 15.66  
Snow  
Snow 0.00 in 0.00 in 0.00 in (2002)
Month to date snowfall 0.0 0.0  
Since 1 July snowfall 8.8 28.5  
Snow Depth 0.00 in    
Sea Level Pressure  
Sea Level Pressure 30.12 in    
Wind  
Wind Speed 5 mph (SSE)    
Max Wind Speed 13 mph    
Max Gust Speed 17 mph    
Visibility 10 miles    
Events Rain    
T = Trace of Precipitation, MM = Missing Value Source: NWS Daily Summary

Daily Weather History Graph

Daily Weather History Graph

Search for Another Location

Airport:

Trip Planner

Search our weather history database for the weather conditions in past years. The results will help you decide how hot, cold, wet, or windy it might be!

Date:

Astronomy

May. 07, 2012 Rise Set
Actual Time 5:47 AM EDT 7:59 PM EDT
Civil Twilight 5:17 AM EDT 8:29 PM EDT
Nautical Twilight 4:40 AM EDT 9:07 PM EDT
Astronomical Twilight 3:59 AM EDT 9:48 PM EDT
Moon 10:09 PM EDT (5/7) 6:50 AM EDT (5/7)
Length of Visible Light 15h 12m
Length of Day
14h 11m
Waning Gibbous, 97% of the Moon is Illuminated
May 7
Waning Gibbous
May 12
Last Quarter
May 20
New
May 28
First Quarter
Jun 4
Full

Hourly Weather History & Observations

Time (EDT) Temp. Dew Point Humidity Pressure Visibility Wind Dir Wind Speed Gust Speed Precip Events Conditions
12:51 AM 54.0 °F 42.1 °F 64% 30.11 in 10.0 mi SW 3.5 mph - N/A   Partly Cloudy
1:51 AM 53.1 °F 42.1 °F 66% 30.10 in 10.0 mi SW 4.6 mph - N/A   Mostly Cloudy
2:51 AM 53.1 °F 43.0 °F 69% 30.10 in 10.0 mi SW 5.8 mph - N/A   Mostly Cloudy
3:23 AM 51.8 °F 42.8 °F 71% 30.11 in 10.0 mi SSW 5.8 mph - N/A   Mostly Cloudy
3:51 AM 53.1 °F 45.0 °F 74% 30.10 in 10.0 mi Calm Calm - N/A   Mostly Cloudy
4:51 AM 53.1 °F 46.0 °F 77% 30.11 in 10.0 mi Calm Calm - N/A   Overcast
5:51 AM 53.1 °F 46.9 °F 80% 30.11 in 10.0 mi East 4.6 mph - N/A   Overcast
6:51 AM 54.0 °F 48.0 °F 80% 30.12 in 10.0 mi SSW 5.8 mph - N/A   Overcast
7:51 AM 55.0 °F 48.9 °F 80% 30.12 in 10.0 mi SE 4.6 mph - N/A   Overcast
8:27 AM 55.4 °F 48.2 °F 77% 30.13 in 10.0 mi Calm Calm - N/A   Overcast
8:51 AM 57.0 °F 48.9 °F 74% 30.14 in 10.0 mi Variable 3.5 mph - N/A   Overcast
9:51 AM 60.1 °F 48.0 °F 64% 30.14 in 10.0 mi Calm Calm - N/A   Overcast
10:51 AM 61.0 °F 44.1 °F 54% 30.15 in 10.0 mi South 6.9 mph - N/A   Overcast
11:51 AM 63.0 °F 45.0 °F 52% 30.14 in 10.0 mi Variable 3.5 mph - N/A   Mostly Cloudy
12:51 PM 62.1 °F 50.0 °F 65% 30.14 in 10.0 mi SE 10.4 mph - 0.00 in   Mostly Cloudy
1:51 PM 59.0 °F 48.9 °F 69% 30.13 in 10.0 mi SE 8.1 mph - N/A   Overcast
2:51 PM 60.1 °F 48.9 °F 67% 30.13 in 10.0 mi ESE 8.1 mph - 0.00 in Rain Light Rain
3:51 PM 61.0 °F 46.0 °F 58% 30.12 in 10.0 mi SE 10.4 mph 16.1 mph 0.00 in   Overcast
4:51 PM 59.0 °F 45.0 °F 60% 30.12 in 10.0 mi SE 9.2 mph - 0.00 in Rain Light Rain
5:51 PM 57.9 °F 46.0 °F 65% 30.11 in 10.0 mi SSE 6.9 mph - 0.00 in Rain Light Rain
6:51 PM 57.9 °F 46.0 °F 65% 30.11 in 10.0 mi SSE 5.8 mph - 0.00 in Rain Light Rain
7:51 PM 57.2 °F 46.4 °F 67% 30.11 in 10.0 mi SSE 5.8 mph - N/A   Overcast
8:51 PM 57.0 °F 45.0 °F 64% 30.10 in 10.0 mi SSE 5.8 mph - N/A   Overcast
9:51 PM 57.0 °F 44.1 °F 62% 30.11 in 10.0 mi SSE 4.6 mph - N/A   Overcast
10:51 PM 57.0 °F 43.0 °F 59% 30.10 in 10.0 mi SSE 4.6 mph - N/A   Overcast
11:51 PM 57.0 °F 44.1 °F 62% 30.09 in 10.0 mi SSE 6.9 mph - N/A   Overcast